TimeCDT,TemperatureF,Dew PointF,Humidity,Sea Level PressureIn,VisibilityMPH,Wind Direction,Wind SpeedMPH,Gust SpeedMPH,PrecipitationIn,Events,Conditions,WindDirDegrees,DateUTC
12:15 AM,39.2,32.0,75,29.87,7.0,North,-9999.0,-,N/A,,Overcast,0,2013-04-18 05:15:00
12:35 AM,39.2,32.0,75,29.85,8.0,North,-9999.0,-,N/A,,Overcast,0,2013-04-18 05:35:00
12:55 AM,39.2,32.0,75,29.84,7.0,North,-9999.0,-,N/A,,Overcast,0,2013-04-18 05:55:00
1:15 AM,39.2,30.2,70,29.83,5.0,North,-9999.0,-,N/A,,Overcast,0,2013-04-18 06:15:00
1:35 AM,39.2,30.2,70,29.81,5.0,North,-9999.0,-,N/A,,Overcast,0,2013-04-18 06:35:00
1:55 AM,39.2,30.2,70,29.81,7.0,North,-9999.0,-,N/A,,Overcast,0,2013-04-18 06:55:00
2:15 AM,39.2,30.2,70,29.81,8.0,North,-9999.0,-,N/A,,Overcast,0,2013-04-18 07:15:00
2:35 AM,39.2,30.2,70,29.84,10.0,North,-9999.0,-,N/A,,Overcast,0,2013-04-18 07:35:00
2:55 AM,39.2,30.2,70,29.84,6.0,North,-9999.0,-,N/A,,Overcast,0,2013-04-18 07:55:00
3:15 AM,39.2,30.2,70,29.84,3.0,North,-9999.0,-,N/A,,Overcast,0,2013-04-18 08:15:00
3:35 AM,39.2,30.2,70,29.82,2.5,North,-9999.0,-,N/A,,Overcast,0,2013-04-18 08:35:00
3:55 AM,37.4,30.2,75,29.83,3.0,North,-9999.0,-,N/A,,Overcast,0,2013-04-18 08:55:00
4:15 AM,37.4,30.2,75,29.83,3.0,North,-9999.0,-,N/A,,Overcast,0,2013-04-18 09:15:00
4:35 AM,37.4,30.2,75,29.82,4.0,North,-9999.0,-,N/A,,Overcast,0,2013-04-18 09:35:00
4:55 AM,37.4,30.2,75,29.80,6.0,North,-9999.0,-,N/A,,Overcast,0,2013-04-18 09:55:00
5:15 AM,37.4,30.2,75,29.79,10.0,North,-9999.0,-,0.01,,Overcast,0,2013-04-18 10:15:00
5:35 AM,37.4,28.4,70,29.75,9.0,North,-9999.0,-,0.02,,Overcast,0,2013-04-18 10:35:00
5:55 AM,37.4,28.4,70,29.74,10.0,North,-9999.0,-,0.02,,Overcast,0,2013-04-18 10:55:00
6:15 AM,37.4,28.4,70,29.72,10.0,North,-9999.0,-,N/A,,Overcast,0,2013-04-18 11:15:00
6:35 AM,37.4,28.4,70,29.72,10.0,North,-9999.0,-,N/A,,Overcast,0,2013-04-18 11:35:00
6:55 AM,37.4,28.4,70,29.72,10.0,North,-9999.0,-,N/A,,Overcast,0,2013-04-18 11:55:00
7:15 AM,37.4,28.4,70,29.71,10.0,North,-9999.0,-,N/A,,Overcast,0,2013-04-18 12:15:00
7:35 AM,37.4,28.4,70,29.71,10.0,North,-9999.0,-,N/A,,Overcast,0,2013-04-18 12:35:00
7:55 AM,37.4,28.4,70,29.70,10.0,North,-9999.0,-,N/A,,Overcast,0,2013-04-18 12:55:00
8:15 AM,37.4,28.4,70,29.70,9.0,North,-9999.0,-,N/A,,Overcast,0,2013-04-18 13:15:00
8:35 AM,37.4,28.4,70,29.69,9.0,North,-9999.0,-,N/A,,Overcast,0,2013-04-18 13:35:00
8:55 AM,37.4,28.4,70,29.70,10.0,North,-9999.0,-,N/A,,Overcast,0,2013-04-18 13:55:00
9:15 AM,37.4,28.4,70,29.71,4.0,North,-9999.0,-,N/A,,Overcast,0,2013-04-18 14:15:00
9:35 AM,37.4,28.4,70,29.68,2.5,North,-9999.0,-,N/A,,Overcast,0,2013-04-18 14:35:00
9:55 AM,37.4,28.4,70,29.70,0.8,North,-9999.0,-,N/A,,Overcast,0,2013-04-18 14:55:00
10:15 AM,37.4,28.4,70,29.68,0.5,North,-9999.0,-,N/A,,Overcast,0,2013-04-18 15:15:00
10:35 AM,37.4,28.4,70,29.67,0.8,North,-9999.0,-,N/A,,Overcast,0,2013-04-18 15:35:00
10:55 AM,37.4,28.4,70,29.67,0.8,North,-9999.0,-,N/A,,Overcast,0,2013-04-18 15:55:00
11:15 AM,37.4,28.4,70,29.67,1.2,North,-9999.0,-,N/A,,Overcast,0,2013-04-18 16:15:00
11:35 AM,37.4,28.4,70,29.67,1.0,North,-9999.0,-,N/A,,Overcast,0,2013-04-18 16:35:00
11:55 AM,35.6,28.4,75,29.66,0.8,North,-9999.0,-,N/A,,Overcast,0,2013-04-18 16:55:00
12:15 PM,37.4,28.4,70,29.66,0.5,North,-9999.0,-,N/A,,Overcast,0,2013-04-18 17:15:00
12:35 PM,37.4,28.4,70,29.64,0.8,North,-9999.0,-,N/A,,Overcast,0,2013-04-18 17:35:00
12:55 PM,37.4,28.4,70,29.63,0.5,North,-9999.0,-,N/A,,Overcast,0,2013-04-18 17:55:00
1:15 PM,37.4,28.4,70,29.62,0.5,North,-9999.0,-,N/A,,Overcast,0,2013-04-18 18:15:00
1:35 PM,35.6,28.4,75,29.62,0.8,North,-9999.0,-,N/A,,Overcast,0,2013-04-18 18:35:00
1:55 PM,37.4,28.4,70,29.62,0.8,North,-9999.0,-,N/A,,Overcast,0,2013-04-18 18:55:00
2:15 PM,37.4,28.4,70,29.62,0.5,North,-9999.0,-,N/A,,Overcast,0,2013-04-18 19:15:00
2:35 PM,37.4,28.4,70,29.61,0.5,North,-9999.0,-,N/A,,Overcast,0,2013-04-18 19:35:00
2:55 PM,37.4,28.4,70,29.60,0.5,North,-9999.0,-,N/A,,Overcast,0,2013-04-18 19:55:00
3:35 PM,37.4,28.4,70,29.60,1.5,North,-9999.0,-,N/A,,Overcast,0,2013-04-18 20:35:00
3:55 PM,37.4,28.4,70,29.60,1.5,North,-9999.0,-,N/A,,Overcast,0,2013-04-18 20:55:00
4:15 PM,37.4,28.4,70,29.60,0.8,North,-9999.0,-,N/A,,Overcast,0,2013-04-18 21:15:00
4:35 PM,37.4,28.4,70,29.60,0.8,North,-9999.0,-,N/A,,Overcast,0,2013-04-18 21:35:00
4:55 PM,37.4,28.4,70,29.60,0.8,North,-9999.0,-,N/A,,Overcast,0,2013-04-18 21:55:00
5:15 PM,37.4,28.4,70,29.60,1.0,North,-9999.0,-,N/A,,Overcast,0,2013-04-18 22:15:00
5:35 PM,37.4,28.4,70,29.60,1.5,North,-9999.0,-,N/A,,Overcast,0,2013-04-18 22:35:00
5:55 PM,37.4,28.4,70,29.61,1.0,North,-9999.0,-,N/A,,Overcast,0,2013-04-18 22:55:00
6:15 PM,37.4,28.4,70,29.61,1.0,North,-9999.0,-,N/A,,Overcast,0,2013-04-18 23:15:00
6:35 PM,37.4,28.4,70,29.62,0.8,North,-9999.0,-,N/A,,Overcast,0,2013-04-18 23:35:00
6:55 PM,37.4,28.4,70,29.63,0.8,North,-9999.0,-,N/A,,Overcast,0,2013-04-18 23:55:00
7:15 PM,37.4,28.4,70,29.63,0.8,North,-9999.0,-,N/A,,Overcast,0,2013-04-19 00:15:00
7:35 PM,37.4,28.4,70,29.63,1.0,North,-9999.0,-,N/A,,Overcast,0,2013-04-19 00:35:00
7:55 PM,37.4,28.4,70,29.64,1.5,North,-9999.0,-,N/A,,Overcast,0,2013-04-19 00:55:00
8:15 PM,37.4,28.4,70,29.64,1.2,North,-9999.0,-,N/A,,Overcast,0,2013-04-19 01:15:00
8:35 PM,37.4,28.4,70,29.65,1.2,North,-9999.0,-,N/A,,Overcast,0,2013-04-19 01:35:00
8:55 PM,37.4,26.6,65,29.65,1.8,North,-9999.0,-,N/A,,Overcast,0,2013-04-19 01:55:00
9:15 PM,37.4,28.4,70,29.66,2.0,North,-9999.0,-,N/A,,Overcast,0,2013-04-19 02:15:00
9:35 PM,37.4,28.4,70,29.66,2.5,North,-9999.0,-,N/A,,Overcast,0,2013-04-19 02:35:00
9:55 PM,37.4,28.4,70,29.66,3.0,North,-9999.0,-,N/A,,Overcast,0,2013-04-19 02:55:00
10:35 PM,35.6,28.4,75,29.66,2.5,North,-9999.0,-,N/A,,Overcast,0,2013-04-19 03:35:00
10:55 PM,35.6,26.6,70,29.65,5.0,North,-9999.0,-,N/A,,Overcast,0,2013-04-19 03:55:00
11:15 PM,35.6,26.6,70,29.64,3.0,North,-9999.0,-,N/A,,Overcast,0,2013-04-19 04:15:00
11:35 PM,35.6,26.6,70,29.64,3.0,North,-9999.0,-,N/A,,Overcast,0,2013-04-19 04:35:00
11:55 PM,35.6,26.6,70,29.64,4.0,North,-9999.0,-,N/A,,Overcast,0,2013-04-19 04:55:00